TimeAKDT,TemperatureF,Dew PointF,Humidity,Sea Level PressureIn,VisibilityMPH,Wind Direction,Wind SpeedMPH,Gust SpeedMPH,PrecipitationIn,Events,Conditions,WindDirDegrees,DateUTC
12:53 AM,30.9,21.9,69,29.73,10.0,NE,4.6,-,N/A,,Overcast,40,2013-10-25 08:53:00
1:53 AM,30.9,21.9,69,29.73,10.0,NE,3.5,-,N/A,,Mostly Cloudy,40,2013-10-25 09:53:00
2:53 AM,28.0,21.0,75,29.74,10.0,ENE,3.5,-,N/A,,Mostly Cloudy,70,2013-10-25 10:53:00
3:53 AM,32.0,21.9,66,29.75,10.0,ENE,6.9,-,N/A,,Mostly Cloudy,60,2013-10-25 11:53:00
4:53 AM,30.0,21.0,69,29.76,10.0,Calm,Calm,-,N/A,,Mostly Cloudy,0,2013-10-25 12:53:00
5:53 AM,30.9,21.9,69,29.76,10.0,ENE,5.8,-,N/A,,Mostly Cloudy,60,2013-10-25 13:53:00
6:53 AM,30.0,21.0,69,29.78,10.0,Calm,Calm,-,N/A,,Mostly Cloudy,0,2013-10-25 14:53:00
7:53 AM,28.9,21.0,72,29.80,10.0,ENE,5.8,-,N/A,,Mostly Cloudy,60,2013-10-25 15:53:00
8:53 AM,28.9,21.0,72,29.82,10.0,Calm,Calm,-,N/A,,Mostly Cloudy,0,2013-10-25 16:53:00
9:53 AM,26.1,19.9,78,29.84,10.0,Calm,Calm,-,N/A,,Scattered Clouds,0,2013-10-25 17:53:00
10:53 AM,30.0,23.0,75,29.86,10.0,Calm,Calm,-,N/A,,Scattered Clouds,0,2013-10-25 18:53:00
11:53 AM,36.0,24.1,62,29.88,10.0,NE,4.6,-,N/A,,Scattered Clouds,50,2013-10-25 19:53:00
12:53 PM,39.0,23.0,53,29.91,10.0,Calm,Calm,-,N/A,,Partly Cloudy,0,2013-10-25 20:53:00
1:53 PM,42.1,23.0,47,29.92,10.0,Calm,Calm,-,N/A,,Partly Cloudy,0,2013-10-25 21:53:00
2:53 PM,42.1,24.1,49,29.94,10.0,Calm,Calm,-,N/A,,Scattered Clouds,0,2013-10-25 22:53:00
3:53 PM,39.0,24.1,55,29.95,10.0,SSW,4.6,-,N/A,,Scattered Clouds,210,2013-10-25 23:53:00
4:53 PM,34.0,23.0,64,29.97,10.0,SSW,5.8,-,N/A,,Mostly Cloudy,200,2013-10-26 00:53:00
5:53 PM,32.0,23.0,69,29.99,10.0,SSW,5.8,-,N/A,,Mostly Cloudy,200,2013-10-26 01:53:00
6:53 PM,28.9,21.9,75,30.03,10.0,SSW,3.5,-,N/A,,Mostly Cloudy,210,2013-10-26 02:53:00
7:53 PM,28.0,21.9,78,30.05,10.0,Calm,Calm,-,N/A,,Scattered Clouds,0,2013-10-26 03:53:00
8:53 PM,25.0,19.9,81,30.07,10.0,NE,5.8,-,N/A,,Scattered Clouds,50,2013-10-26 04:53:00
9:53 PM,26.1,21.0,81,30.10,10.0,Calm,Calm,-,N/A,,Scattered Clouds,0,2013-10-26 05:53:00
10:53 PM,26.1,21.0,81,30.14,10.0,ENE,3.5,-,N/A,,Mostly Cloudy,60,2013-10-26 06:53:00
11:53 PM,25.0,21.0,85,30.17,10.0,North,3.5,-,N/A,,Scattered Clouds,10,2013-10-26 07:53:00